Location: Équennes
(49.7375°N, 1.9622°E)
Time: 22:16:55
(UTC+00:00)

NOSS 3-3 (C) - Pass Details

Date: 28 January 2023
Orbit: 770 x 1441 km, 63.4° (Epoch: 23 February)

Event Time Altitude Azimuth Distance (km) Brightness Sun altitude
Rises 17:45:48 0° 238° (WSW) 3,357 8.5 -10.7°
Reaches altitude 10° 17:48:09 10° 243° (WSW) 2,486 7.6 -11.1°
Maximum altitude 17:53:48 57° 322° (NW) 1,108 4.5 -12.0°
Drops below altitude 10° 18:00:28 10° 40° (NE) 2,911 6.0 -13.0°
Enters shadow 18:00:38 - 41° (NE) 2,974 6.1 -13.0°
